Location: Gorlice
(49.6633°N, 21.1693°E)
Time: 10:47:26
(UTC+01:00)

ISS - Pass Details

Date: 01 February 2019
Orbit: 403 x 411 km, 51.6° (Epoch: 16 February)

Event Time Altitude Azimuth Distance (km) Brightness Sun altitude
Rises 17:20:20 0° 269° (W) 2,332 1.8 -8.4°
Reaches altitude 10° 17:22:26 10° 274° (W) 1,474 0.3 -8.8°
Maximum altitude 17:25:43 60° 355° (N) 473 -3.6 -9.3°
Enters shadow 17:28:24 14° 75° (ENE) 1,242 -2.1 -9.7°
